| time (UTC) | temp C | wind direction | speed KPH | gust KPH | rain 1hr cm | rain 24hr cm | rain mn cm | humidity % | barometer mb |
| 20260503184926 | 12 | 325 | 17.7 | 33.8 | 0.00 | 0.00 | 0.00 | 88 | 1012.6 |
| 20260503184428 | 12 | 262 | 14.5 | 30.6 | 0.00 | 0.00 | 0.00 | 88 | 1012.6 |
| 20260503183926 | 13 | 338 | 16.1 | 32.2 | 0.00 | 0.00 | 0.00 | 88 | 1012.8 |
| 20260503183429 | 13 | 315 | 16.1 | 32.2 | 0.00 | 0.00 | 0.00 | 88 | 1012.6 |
| 20260503182927 | 13 | 328 | 19.3 | 35.4 | 0.00 | 0.00 | 0.00 | 88 | 1012.8 |
| 20260503181923 | 13 | 351 | 16.1 | 38.6 | 0.00 | 0.00 | 0.00 | 87 | 1012.6 |
| 20260503181422 | 13 | 262 | 14.5 | 29.0 | 0.00 | 0.00 | 0.00 | 87 | 1012.5 |
| 20260503180927 | 13 | 235 | 16.1 | 32.2 | 0.00 | 0.00 | 0.00 | 87 | 1012.4 |
| 20260503175921 | 13 | 321 | 19.3 | 33.8 | 0.00 | 0.00 | 0.00 | 87 | 1012.1 |
| 20260503175422 | 13 | 9 | 19.3 | 33.8 | 0.00 | 0.00 | 0.00 | 87 | 1012.0 |
| 20260503174422 | 13 | 323 | 19.3 | 32.2 | 0.00 | 0.00 | 0.00 | 88 | 1011.8 |
| 20260503173919 | 13 | 249 | 19.3 | 35.4 | 0.00 | 0.00 | 0.00 | 88 | 1011.7 |
| 20260503173422 | 13 | 296 | 20.9 | 37.0 | 0.00 | 0.00 | 0.00 | 87 | 1011.6 |
| 20260503172920 | 13 | 338 | 19.3 | 37.0 | 0.00 | 0.00 | 0.00 | 88 | 1011.5 |
| 20260503172421 | 14 | 258 | 19.3 | 35.4 | 0.00 | 0.00 | 0.00 | 88 | 1011.3 |
| 20260503171919 | 14 | 282 | 19.3 | 33.8 | 0.00 | 0.00 | 0.00 | 88 | 1011.3 |
| 20260503171411 | 14 | 270 | 16.1 | 33.8 | 0.00 | 0.00 | 0.00 | 88 | 1011.4 |
| 20260503170916 | 14 | 284 | 16.1 | 32.2 | 0.00 | 0.00 | 0.00 | 88 | 1011.1 |
| 20260503170404 | 14 | 347 | 19.3 | 38.6 | 0.00 | 0.00 | 0.00 | 87 | 1010.9 |
| 20260503150856 | 16 | 280 | 16.1 | 29.0 | 0.00 | 0.00 | 0.00 | 83 | 1010.6 |
| 20260503131316 | 18 | 277 | 27.4 | 45.1 | 0.00 | 0.00 | 0.00 | 70 | 1009.2 |
| 20260503130814 | 18 | 290 | 27.4 | 45.1 | 0.00 | 0.00 | 0.00 | 71 | 1009.2 |
| 20260503130315 | 18 | 333 | 25.7 | 45.1 | 0.00 | 0.00 | 0.00 | 70 | 1009.0 |
| 20260503110759 | 20 | 284 | 24.1 | 51.5 | 0.00 | 0.00 | 0.00 | 71 | 1008.3 |
| 20260503110300 | 20 | 281 | 24.1 | 51.5 | 0.00 | 0.00 | 0.00 | 70 | 1008.3 |
| 20260503100243 | 21 | 289 | 19.3 | 38.6 | 0.00 | 0.00 | 0.00 | 67 | 1007.8 |
| 20260503090224 | 22 | 269 | 19.3 | 33.8 | 0.00 | 0.00 | 0.00 | 51 | 1007.3 |
| 20260503081226 | 22 | 267 | 16.1 | 32.2 | 0.00 | 0.00 | 0.00 | 48 | 1007.2 |
| 20260503080723 | 22 | 304 | 16.1 | 32.2 | 0.00 | 0.00 | 0.00 | 47 | 1007.1 |
| 20260503080218 | 22 | 240 | 16.1 | 30.6 | 0.00 | 0.00 | 0.00 | 46 | 1006.8 |
| 20260503072216 | 22 | 247 | 14.5 | 30.6 | 0.00 | 0.00 | 0.00 | 44 | 1006.5 |
| 20260503071715 | 22 | 250 | 12.9 | 27.4 | 0.00 | 0.00 | 0.00 | 44 | 1006.3 |
| 20260503071216 | 22 | 247 | 12.9 | 27.4 | 0.00 | 0.00 | 0.00 | 44 | 1006.5 |
| 20260503070718 | 22 | 252 | 14.5 | 33.8 | 0.00 | 0.00 | 0.00 | 45 | 1006.3 |
| 20260503070215 | 22 | 286 | 12.9 | 33.8 | 0.00 | 0.00 | 0.00 | 44 | 1006.4 |
| 20260503054704 | 21 | 271 | 11.3 | 27.4 | 0.00 | 0.00 | 0.00 | 41 | 1005.8 |
| 20260503054205 | 21 | 242 | 9.7 | 27.4 | 0.00 | 0.00 | 0.00 | 42 | 1005.7 |
| 20260503053704 | 21 | 310 | 9.7 | 22.5 | 0.00 | 0.00 | 0.00 | 42 | 1005.8 |
| 20260503053206 | 21 | 250 | 8.0 | 17.7 | 0.00 | 0.00 | 0.00 | 42 | 1005.7 |
| 20260503052705 | 21 | 246 | 6.4 | 19.3 | 0.00 | 0.00 | 0.00 | 43 | 1005.8 |
| 20260503052206 | 21 | 265 | 6.4 | 19.3 | 0.00 | 0.00 | 0.00 | 44 | 1005.7 |
| 20260503051706 | 21 | 281 | 8.0 | 20.9 | 0.00 | 0.00 | 0.00 | 44 | 1005.6 |
| 20260503051206 | 20 | 244 | 9.7 | 20.9 | 0.00 | 0.00 | 0.00 | 45 | 1005.4 |
| 20260503050705 | 20 | 245 | 9.7 | 20.9 | 0.00 | 0.00 | 0.00 | 46 | 1005.4 |
| 20260503050207 | 20 | 273 | 9.7 | 20.9 | 0.00 | 0.00 | 0.00 | 47 | 1005.4 |
| 20260503045708 | 20 | 272 | 9.7 | 20.9 | 0.00 | 0.00 | 0.00 | 48 | 1005.4 |
| 20260503045205 | 20 | 271 | 8.0 | 20.9 | 0.00 | 0.00 | 0.00 | 48 | 1005.4 |
| 20260503044705 | 20 | 229 | 8.0 | 16.1 | 0.00 | 0.00 | 0.00 | 50 | 1005.4 |
| 20260503044207 | 19 | 257 | 6.4 | 16.1 | 0.00 | 0.00 | 0.00 | 51 | 1005.3 |
| 20260503043706 | 19 | 229 | 8.0 | 16.1 | 0.00 | 0.00 | 0.00 | 52 | 1005.2 |
| 20260503043207 | 18 | 232 | 8.0 | 17.7 | 0.00 | 0.00 | 0.00 | 53 | 1005.4 |
| 20260503042705 | 18 | 246 | 8.0 | 20.9 | 0.00 | 0.00 | 0.00 | 53 | 1005.3 |
| 20260503042207 | 18 | 251 | 9.7 | 20.9 | 0.00 | 0.00 | 0.00 | 54 | 1005.3 |
| 20260503041707 | 18 | 249 | 9.7 | 19.3 | 0.00 | 0.00 | 0.00 | 54 | 1005.2 |
| 20260503041210 | 18 | 248 | 6.4 | 17.7 | 0.00 | 0.00 | 0.00 | 55 | 1005.2 |
| 20260503040706 | 18 | 245 | 8.0 | 16.1 | 0.00 | 0.00 | 0.00 | 55 | 1005.2 |
| 20260503035705 | 18 | 248 | 11.3 | 24.1 | 0.00 | 0.00 | 0.00 | 52 | 1005.2 |
| 20260503035204 | 18 | 258 | 11.3 | 19.3 | 0.00 | 0.00 | 0.00 | 50 | 1005.2 |
| 20260503035016 | 19 | 238 | 9.7 | 19.3 | 0.00 | 0.00 | 0.00 | 47 | 1005.2 |
| 20260503034205 | 19 | 271 | 8.0 | 17.7 | 0.00 | 0.00 | 0.00 | 43 | 1005.0 |
| 20260503034018 | 19 | 219 | 4.8 | 16.1 | 0.00 | 0.00 | 0.00 | 41 | 1004.9 |
| 20260503033205 | 19 | 273 | 3.2 | 9.7 | 0.00 | 0.00 | 0.00 | 40 | 1004.9 |
| 20260503032204 | 18 | 145 | 1.6 | 6.4 | 0.00 | 0.00 | 0.00 | 40 | 1004.7 |
| 20260503032013 | 18 | 163 | 1.6 | 8.0 | 0.00 | 0.00 | 0.00 | 41 | 1004.5 |
| 20260503031202 | 18 | 165 | 0.0 | 8.0 | 0.00 | 0.00 | 0.00 | 41 | 1004.5 |
| 20260503031015 | 18 | 185 | 0.0 | 8.0 | 0.00 | 0.00 | 0.00 | 41 | 1004.5 |
| 20260503030201 | 18 | 135 | 1.6 | 4.8 | 0.00 | 0.00 | 0.00 | 41 | 1004.5 |
| 20260503030011 | 18 | 135 | 3.2 | 12.9 | 0.00 | 0.00 | 0.00 | 41 | 1004.3 |
| 20260503025200 | 18 | 135 | 4.8 | 12.9 | 0.00 | 0.00 | 0.00 | 42 | 1004.0 |
| 20260503025010 | 18 | 130 | 4.8 | 12.9 | 0.00 | 0.00 | 0.00 | 44 | 1004.0 |
| 20260503024200 | 17 | 137 | 4.8 | 12.9 | 0.00 | 0.00 | 0.00 | 47 | 1004.0 |
| 20260503024009 | 17 | 142 | 4.8 | 11.3 | 0.00 | 0.00 | 0.00 | 49 | 1004.0 |
| 20260503023155 | 17 | 132 | 3.2 | 8.0 | 0.00 | 0.00 | 0.00 | 50 | 1004.0 |
| 20260503023007 | 17 | 134 | 3.2 | 8.0 | 0.00 | 0.00 | 0.00 | 51 | 1004.0 |
| 20260503022159 | 17 | 137 | 1.6 | 4.8 | 0.00 | 0.00 | 0.00 | 50 | 1004.2 |
| 20260503022006 | 17 | 138 | 1.6 | 4.8 | 0.00 | 0.00 | 0.00 | 50 | 1004.2 |
| 20260503021153 | 17 | 110 | 1.6 | 6.4 | 0.00 | 0.00 | 0.00 | 49 | 1004.0 |
| 20260503021002 | 17 | 110 | 1.6 | 6.4 | 0.00 | 0.00 | 0.00 | 49 | 1003.9 |
| 20260503020152 | 17 | 336 | 0.0 | 4.8 | 0.00 | 0.00 | 0.00 | 49 | 1003.9 |
| 20260503015643 | 17 | 331 | 1.6 | 4.8 | 0.00 | 0.00 | 0.00 | 48 | 1003.9 |
| 20260503014625 | 18 | 330 | 1.6 | 6.4 | 0.00 | 0.00 | 0.00 | 46 | 1004.2 |
| 20260503014127 | 18 | 329 | 3.2 | 8.0 | 0.00 | 0.00 | 0.00 | 45 | 1004.0 |
| 20260503013624 | 18 | 331 | 3.2 | 8.0 | 0.00 | 0.00 | 0.00 | 44 | 1004.2 |
| 20260503013124 | 18 | 330 | 1.6 | 6.4 | 0.00 | 0.00 | 0.00 | 43 | 1004.3 |
| 20260503012621 | 18 | 329 | 1.6 | 4.8 | 0.00 | 0.00 | 0.00 | 43 | 1004.4 |
| 20260503012111 | 18 | 329 | 3.2 | 11.3 | 0.00 | 0.00 | 0.00 | 42 | 1004.4 |
| 20260503011613 | 19 | 342 | 4.8 | 11.3 | 0.00 | 0.00 | 0.00 | 41 | 1004.5 |
| 20260503011114 | 19 | 317 | 4.8 | 11.3 | 0.00 | 0.00 | 0.00 | 40 | 1004.7 |
| 20260503010615 | 19 | 337 | 3.2 | 11.3 | 0.00 | 0.00 | 0.00 | 39 | 1004.7 |
| 20260503010113 | 20 | 303 | 3.2 | 12.9 | 0.00 | 0.00 | 0.00 | 38 | 1004.8 |
| 20260503005610 | 20 | 275 | 6.4 | 22.5 | 0.00 | 0.00 | 0.00 | 37 | 1004.9 |
| 20260503005105 | 20 | 237 | 8.0 | 22.5 | 0.00 | 0.00 | 0.00 | 37 | 1005.0 |
| 20260503004604 | 20 | 238 | 6.4 | 19.3 | 0.00 | 0.00 | 0.00 | 36 | 1005.2 |
| 20260503004107 | 20 | 261 | 8.0 | 19.3 | 0.00 | 0.00 | 0.00 | 36 | 1005.2 |
| 20260503003608 | 20 | 263 | 4.8 | 19.3 | 0.00 | 0.00 | 0.00 | 38 | 1005.2 |
| 20260503003106 | 20 | 212 | 1.6 | 6.4 | 0.00 | 0.00 | 0.00 | 37 | 1004.9 |
| 20260503002606 | 20 | 182 | 0.0 | 4.8 | 0.00 | 0.00 | 0.00 | 36 | 1004.8 |
| 20260503001105 | 21 | 148 | 3.2 | 8.0 | 0.00 | 0.00 | 0.00 | 35 | 1005.0 |
| 20260503000108 | 21 | 128 | 4.8 | 11.3 | 0.00 | 0.00 | 0.00 | 35 | 1004.8 |
| 20260502235104 | 21 | 129 | 3.2 | 12.9 | 0.00 | 0.00 | 0.00 | 36 | 1005.0 |
| 20260502234603 | 21 | 136 | 3.2 | 6.4 | 0.00 | 0.00 | 0.00 | 36 | 1005.1 |
| 20260502234108 | 21 | 134 | 3.2 | 6.4 | 0.00 | 0.00 | 0.00 | 36 | 1005.2 |
| 20260502233107 | 21 | 143 | 1.6 | 11.3 | 0.00 | 0.00 | 0.00 | 35 | 1005.6 |
| 20260502232606 | 21 | 142 | 4.8 | 12.9 | 0.00 | 0.00 | 0.00 | 34 | 1005.4 |
| 20260502232105 | 21 | 119 | 6.4 | 16.1 | 0.00 | 0.00 | 0.00 | 34 | 1005.1 |
| 20260502231104 | 21 | 129 | 4.8 | 12.9 | 0.00 | 0.00 | 0.00 | 35 | 1005.1 |
| 20260502230604 | 21 | 135 | 4.8 | 12.9 | 0.00 | 0.00 | 0.00 | 35 | 1005.0 |
| 20260502225105 | 21 | 137 | 1.6 | 11.3 | 0.00 | 0.00 | 0.00 | 36 | 1005.2 |
| 20260502224604 | 21 | 119 | 1.6 | 4.8 | 0.00 | 0.00 | 0.00 | 35 | 1005.4 |
| 20260502224105 | 21 | 119 | 1.6 | 4.8 | 0.00 | 0.00 | 0.00 | 35 | 1005.4 |
| 20260502223559 | 21 | 119 | 1.6 | 4.8 | 0.00 | 0.00 | 0.00 | 34 | 1005.4 |
| 20260502223057 | 21 | 121 | 3.2 | 8.0 | 0.00 | 0.00 | 0.00 | 34 | 1005.6 |
| 20260502222554 | 21 | 128 | 3.2 | 9.7 | 0.00 | 0.00 | 0.00 | 34 | 1005.6 |
| 20260502222057 | 21 | 132 | 3.2 | 11.3 | 0.00 | 0.00 | 0.00 | 34 | 1005.8 |
| 20260502221557 | 21 | 127 | 4.8 | 11.3 | 0.00 | 0.00 | 0.00 | 34 | 1005.9 |
| 20260502221052 | 21 | 76 | 6.4 | 14.5 | 0.00 | 0.00 | 0.00 | 34 | 1005.9 |
| 20260502220044 | 21 | 132 | 6.4 | 12.9 | 0.00 | 0.00 | 0.00 | 35 | 1006.0 |
| 20260502215547 | 21 | 134 | 6.4 | 12.9 | 0.00 | 0.00 | 0.00 | 36 | 1006.2 |
| 20260502215045 | 21 | 132 | 4.8 | 12.9 | 0.00 | 0.00 | 0.00 | 36 | 1006.2 |
| 20260502214544 | 21 | 138 | 3.2 | 6.4 | 0.00 | 0.00 | 0.00 | 36 | 1006.3 |
| 20260502214042 | 20 | 134 | 3.2 | 6.4 | 0.00 | 0.00 | 0.00 | 36 | 1006.3 |
| 20260502213539 | 20 | 113 | 3.2 | 6.4 | 0.00 | 0.00 | 0.00 | 36 | 1006.3 |
| 20260502213043 | 20 | 128 | 3.2 | 4.8 | 0.00 | 0.00 | 0.00 | 37 | 1006.4 |
| 20260502212540 | 20 | 128 | 3.2 | 6.4 | 0.00 | 0.00 | 0.00 | 38 | 1006.4 |
| 20260502212036 | 20 | 128 | 3.2 | 6.4 | 0.00 | 0.00 | 0.00 | 38 | 1006.4 |
| 20260502211521 | 20 | 126 | 1.6 | 4.8 | 0.00 | 0.00 | 0.00 | 39 | 1006.3 |
| 20260502211014 | 20 | 128 | 1.6 | 4.8 | 0.00 | 0.00 | 0.00 | 39 | 1006.3 |
| 20260502205505 | 20 | 117 | 3.2 | 6.4 | 0.00 | 0.00 | 0.00 | 39 | 1006.4 |
| 20260502205006 | 20 | 131 | 1.6 | 6.4 | 0.00 | 0.00 | 0.00 | 40 | 1006.4 |
| 20260502204505 | 20 | 119 | 1.6 | 4.8 | 0.00 | 0.00 | 0.00 | 40 | 1006.5 |
| 20260502203957 | 20 | 119 | 1.6 | 4.8 | 0.00 | 0.00 | 0.00 | 41 | 1006.6 |
| 20260502203456 | 20 | 119 | 0.0 | 4.8 | 0.00 | 0.00 | 0.00 | 41 | 1006.8 |
| 20260502202956 | 20 | 119 | 0.0 | 3.2 | 0.00 | 0.00 | 0.00 | 40 | 1007.0 |
| 20260502202456 | 20 | 119 | 0.0 | 4.8 | 0.00 | 0.00 | 0.00 | 40 | 1006.8 |
| 20260502201955 | 20 | 119 | 1.6 | 4.8 | 0.00 | 0.00 | 0.00 | 39 | 1006.8 |
| 20260502201456 | 20 | 119 | 1.6 | 6.4 | 0.00 | 0.00 | 0.00 | 39 | 1006.8 |
| 20260502200955 | 20 | 119 | 1.6 | 6.4 | 0.00 | 0.00 | 0.00 | 39 | 1006.8 |
| 20260502195951 | 20 | 123 | 1.6 | 6.4 | 0.00 | 0.00 | 0.00 | 39 | 1007.0 |
| 20260502194953 | 20 | 119 | 0.0 | 4.8 | 0.00 | 0.00 | 0.00 | 39 | 1007.1 |
| 20260502194446 | 20 | 121 | 0.0 | 4.8 | 0.00 | 0.00 | 0.00 | 39 | 1007.2 |
| 20260502193941 | 20 | 121 | 0.0 | 3.2 | 0.00 | 0.00 | 0.00 | 38 | 1007.2 |
| 20260502191922 | 20 | 121 | 1.6 | 6.4 | 0.00 | 0.00 | 0.00 | 38 | 1007.4 |
| 20260502185404 | 20 | 117 | 1.6 | 4.8 | 0.00 | 0.00 | 0.00 | 37 | 1007.5 |